Other Surface Observations
Issued by NWS

Home | Current Version | Previous Version | Text Only | Print | Product List | Glossary On
Versions: 1 2 3 4 5 6 7 8 9 10 11 12 13 14 15 16 17 18 19 20 21 22 23 24 25 26 27 28 29 30 31 32 33 34 35 36 37 38 39 40 41 42 43 44 45 46 47 48 49 50
000
SXUS52 KTAE 011518
OSOTAE
OSOTAE
North Florida/South Alabama/Southwest Georgia Weather Roundup
National Weather Service Tallahassee Florida
1100 AM EDT TUE SEP 01 2015

Note: "fair" indicates few or no clouds below 12,000 feet with no
significant weather and/or obstructions to visibility.

!FLZ017-115-028-034-025-011600
...North Florida...

CITY           SKY/WX    TMP DP  RH WIND       PRES   REMARKS
TALLAHASSEE    PTSUNNY   83  74  74 NE5       30.08S
APALACHICOLA   CLOUDY    76  75  97 NE6       30.07R
PERRY          PTSUNNY   85  76  73 NE5       30.08F HX  95
CROSS CITY       N/A     82  76  81 E5        30.09R
JACKSONVILLE   PTSUNNY   85  79  82 N6        30.09R HX  98
$$

!FLZ112-006-005-002-011-011600
...Florida Panhandle...

CITY           SKY/WX    TMP DP  RH WIND       PRES   REMARKS
MARIANNA       MOSUNNY   86  73  65 NE6       30.09R HX  93
BONIFAY        NOT AVBL
PANAMA CITY NW FAIR      87  73  62 N7        30.08R HX  94
TYNDALL AFB    MOSUNNY   87  73  63 VRB7      30.07S HX  94
TYND DRONE APT FAIR      87  74  65 N9        30.07S HX  96
DE FUNIAK SPR  FAIR      84  73  69 NE6       30.10S HX  90
EGLIN AFB      PTSUNNY   89  67  48 NE7       30.07S HX  92
DESTIN         MOSUNNY   89  71  55 N8        30.08R HX  95
HURLBURT       MOSUNNY   86  66  51 N9        30.07R
CRESTVIEW      MOSUNNY   85  69  58 N5        30.10R
PENSACOLA      SUNNY     86  69  56 N7        30.08R HX  90
$$

!ALZ063-066-011600
...South Alabama...

CITY           SKY/WX    TMP DP  RH WIND       PRES   REMARKS
DOTHAN         MOSUNNY   85  73  67 CALM      30.14R HX  91
OZARK CAIRNS   PTSUNNY   86  71  60 N5        30.10R HX  91
FT RUCKER HELI MOSUNNY   86  70  58 NE5       30.09S HX  90
RUCKER HELI 3  FAIR      89  68  50 N5        30.12R HX  92
RUCKER HELI 2  FAIR      85  71  63 NE3       30.10  HX  90
FLORALA APT    MOSUNNY   85  70  60 N3        30.12R
ANDALUSIA      MOSUNNY   90  71  53 CALM      30.10R HX  96
TROY           MOSUNNY   85  71  63 E3        30.11S HX  90
EUFALA         FAIR      86  73  65 CALM      30.10S HX  93
MOBILE         PTSUNNY   87  67  51 N5        30.10R HX  90
$$

!GAZ120>161-011600
...Southwest and South Central Georgia...

CITY           SKY/WX    TMP DP  RH WIND       PRES   REMARKS
THOMASVILLE    FAIR      82  75  78 E7        30.11F
BAINBRIDGE     MOSUNNY   86  72  62 E7        30.10S HX  92
MOODY AFB      PTSUNNY   82  75  78 NE7       30.09F
VALDOSTA       PTSUNNY   84  76  76 NE7       30.10S HX  93
MOULTRIE       SUNNY     84  73  70 NE6       30.12R HX  91
BLAKELY        MOSUNNY   86  73  66 CALM      30.11S HX  93
ALBANY         MOSUNNY   86  71  60 E6        30.13R HX  91
TIFTON         FAIR      82  74  78 E6        30.11S
FITZGERALD     FAIR      83  76  81 NE3       30.15S HX  91
CORDELE        FAIR      86  75  68 E3        30.13S HX  95
AMERICUS       FAIR      82  72  69 E5        30.14S
HOMERVILLE     CLOUDY    86  79  79 E6        30.11S HX  99
$$

!GMZ750-755-770-775-011600
...Coastal and Buoy Obs...

STATION/POSITION TIME  TEMP    WIND        PRES    VSBY  WAVE
                       AIR SEA DIR/SP/G                  HT/PER
                 (UTC) (F)     (DEG/KT/KT) (MB)    (MI)  (FT/S)
KEATON BEACH     1500   84      50/  6/ 10 1018.4S
CEDAR KEY        1500   81     130/ 10/ 11 1019.0R
C TOWER          1500   79      40/ 14/ 15 1017.9F
APALACHICOLA BUO 1450   78 85  360/ 10/ 14 1017.8R         2/ 5
PANAMA CITY BUOY 1450   83 86   50/ 14/ 16 1018.0R         2/ 4
MOBILE BUOY      1450   83 86   60/ 10/ 12 1018.9R         1/ 7
ORANGE BCH AL BU 1450   82 85   10/ 10/ 12 1018.0R         1/ 7
$$



USA.gov is the U.S. government's official web portal to all federal, state and local government web resources and services.